Find Starlink 11618

NORAD ID: 63185 Int'l Des: 2025-048 Owner: SPXS Country: US Constellation: starlink operational
別名: STARLINK-11618 [DTC] celestrak
LEOCIRCULAR

現在のビュー

3D地球を読み込み中...

About Starlink 11618

Starlink 11618 (NORAD 63185) is a starlink constellation satellite (v2 mini d2c) launched Mar 13, 2025 by SPXS of US. It operates in LEO, CIRCULAR orbit with a mass of 960.00 kg.

次回通過

Passes for default location (London). Set your location on the main map for personalized predictions.

高度履歴

Loading altitude history...

軌道要素

1 63185U 25048C 26235.78706892 .00113969 00000-0 87649-3 0 9993
2 63185 43.0001 32.4765 0000832 265.5064 94.5708 15.70923265 84792
Epoch: Aug 23, 2026 • Age: 13 hours

現在のステータス

高度 365.9 km
遠地点 / 近地点 N/A
速度 7.69 km/s
衛星直下点 -36.14°S, 166.02°E
打ち上げ日 Mar 13, 2025
運用期間 1.4 years
タイプ internet

技術仕様

分類 Payload
質量 960.00 kg
乾燥質量 910.00 kg
総質量 960.00 kg
長さ 0.30 m
直径 4.10 m
スパン 29.00 m
形状 Box + pan
製造者 SPXS
バスタイプ Starlink V2MD
フェーズステータス In Orbit
所有者/国 SPXS/US

Most Searched